StationID,Date,MaxTemp,MinTemp,Precipitation,Snowfall,SnowDepth
"USW00024207","1946-12-24",39.92,26.06,0.00,0.00,3302.00
"USW00024207","1946-12-31",39.92,26.96,5.00,0.00,762.00
"USW00024207","1947-05-30",73.04,51.98,0.00,0.00,0.00
"USW00024207","1947-09-15",59.00,46.04,0.00,0.00,0.00
"USW00024207","1949-01-01",35.96,26.96,13.00,0.00,0.00
"USW00024207","1949-01-02",39.02,19.04,0.00,0.00,0.00
"USW00024207","1949-01-03",33.98,14.00,0.00,0.00,0.00
"USW00024207","1949-01-04",35.06,17.06,0.00,0.00,0.00
"USW00024207","1949-01-05",39.02,26.96,0.00,0.00,0.00
"USW00024207","1949-01-06",53.06,37.04,0.00,0.00,0.00
"USW00024207","1949-01-07",48.92,26.96,13.00,0.00,0.00
"USW00024207","1949-01-08",33.08,17.06,0.00,0.00,0.00
"USW00024207","1949-01-09",30.92,12.02,0.00,0.00,0.00
"USW00024207","1949-01-10",32.00,10.04,0.00,0.00,0.00
"USW00024207","1949-01-11",33.98,14.00,0.00,0.00,0.00
"USW00024207","1949-01-12",32.00,15.98,0.00,0.00,0.00
"USW00024207","1949-01-13",37.04,15.98,0.00,0.00,0.00
"USW00024207","1949-01-14",42.08,30.02,0.00,0.00,0.00
"USW00024207","1949-01-15",41.00,19.94,0.00,0.00,0.00
"USW00024207","1949-01-16",42.08,21.92,0.00,0.00,0.00
"USW00024207","1949-01-17",41.00,26.96,5.00,0.00,0.00
"USW00024207","1949-01-18",37.04,23.00,0.00,0.00,0.00
"USW00024207","1949-01-19",37.94,19.94,0.00,0.00,0.00
"USW00024207","1949-01-20",30.02,15.08,25.00,3.00,25.00
"USW00024207","1949-01-21",37.04,26.06,43.00,28.00,25.00
"USW00024207","1949-01-22",33.98,24.08,25.00,25.00,51.00
"USW00024207","1949-01-23",32.00,6.98,0.00,0.00,51.00
"USW00024207","1949-01-24",30.02,3.92,0.00,0.00,51.00
"USW00024207","1949-01-25",32.00,8.06,0.00,0.00,51.00
"USW00024207","1949-01-26",32.00,23.00,18.00,15.00,51.00
"USW00024207","1949-01-27",33.98,23.00,0.00,0.00,51.00
"USW00024207","1949-01-28",37.94,14.00,0.00,0.00,25.00
"USW00024207","1949-01-29",37.94,23.00,0.00,0.00,25.00
"USW00024207","1949-01-30",37.94,24.98,0.00,0.00,127.00
"USW00024207","1949-01-31",35.96,24.98,0.00,0.00,0.00
"USW00024207","1949-02-01",39.92,19.04,0.00,0.00,0.00
"USW00024207","1949-02-02",37.04,24.08,0.00,0.00,0.00
"USW00024207","1949-02-03",35.96,30.02,66.00,51.00,0.00
"USW00024207","1949-02-04",33.08,28.04,10.00,10.00,1016.00
"USW00024207","1949-02-05",37.04,15.98,20.00,20.00,25.00
"USW00024207","1949-02-06",37.94,32.00,5.00,0.00,0.00
"USW00024207","1949-02-07",37.94,30.02,5.00,51.00,0.00
"USW00024207","1949-02-08",39.92,32.00,0.00,0.00,0.00
"USW00024207","1949-02-09",44.96,35.96,99.00,0.00,0.00
"USW00024207","1949-02-10",46.04,30.02,236.00,0.00,0.00
"USW00024207","1949-02-11",35.96,24.98,3.00,3.00,0.00
"USW00024207","1949-02-12",33.98,17.96,0.00,0.00,0.00
"USW00024207","1949-02-13",35.06,17.06,0.00,0.00,0.00
"USW00024207","1949-02-14",37.94,33.98,43.00,0.00,0.00
"USW00024207","1949-02-15",42.98,33.98,74.00,0.00,0.00
"USW00024207","1949-02-16",48.92,44.06,493.00,0.00,0.00
"USW00024207","1949-02-17",48.02,33.98,206.00,0.00,0.00
"USW00024207","1949-02-18",39.02,30.02,0.00,0.00,0.00
"USW00024207","1949-02-19",35.06,32.00,351.00,102.00,102.00
"USW00024207","1949-02-20",37.94,30.92,8.00,0.00,51.00
"USW00024207","1949-02-21",51.98,35.06,132.00,0.00,0.00
"USW00024207","1949-02-22",53.96,44.96,132.00,0.00,0.00
"USW00024207","1949-02-23",55.04,41.00,0.00,0.00,0.00
"USW00024207","1949-02-24",62.06,33.08,0.00,0.00,0.00
"USW00024207","1949-02-25",62.06,32.00,0.00,0.00,0.00
"USW00024207","1949-02-26",62.06,30.92,0.00,0.00,0.00
"USW00024207","1949-02-27",60.08,28.94,0.00,0.00,0.00
"USW00024207","1949-02-28",66.02,28.04,0.00,0.00,0.00
"USW00024207","1949-03-01",53.06,30.92,0.00,0.00,0.00
"USW00024207","1949-03-02",55.04,39.02,0.00,0.00,0.00
"USW00024207","1949-03-03",57.92,30.92,0.00,0.00,0.00
"USW00024207","1949-03-04",60.08,28.94,0.00,0.00,0.00
"USW00024207","1949-03-05",57.02,37.94,0.00,0.00,0.00
"USW00024207","1949-03-06",51.08,37.94,0.00,0.00,0.00
"USW00024207","1949-03-07",48.02,39.92,30.00,0.00,0.00
"USW00024207","1949-03-08",46.94,37.94,23.00,0.00,0.00
"USW00024207","1949-03-09",55.94,32.00,0.00,0.00,0.00
"USW00024207","1949-03-10",57.92,33.98,0.00,0.00,0.00
"USW00024207","1949-03-11",57.92,35.96,0.00,0.00,0.00
"USW00024207","1949-03-12",46.94,42.98,30.00,0.00,0.00
"USW00024207","1949-03-13",50.00,42.08,10.00,0.00,0.00
"USW00024207","1949-03-14",50.00,41.00,25.00,0.00,0.00
"USW00024207","1949-03-15",51.98,37.94,5.00,0.00,0.00
"USW00024207","1949-03-16",57.02,44.06,160.00,0.00,0.00
"USW00024207","1949-03-17",60.08,44.06,18.00,0.00,0.00
"USW00024207","1949-03-18",62.06,44.06,86.00,0.00,0.00
"USW00024207","1949-03-19",55.04,44.96,102.00,0.00,0.00
"USW00024207","1949-03-20",50.00,44.06,43.00,0.00,0.00
"USW00024207","1949-03-21",50.00,37.94,10.00,0.00,0.00
"USW00024207","1949-03-22",53.06,33.08,0.00,0.00,0.00
"USW00024207","1949-03-23",55.94,30.02,0.00,0.00,0.00
"USW00024207","1949-03-24",53.96,32.00,0.00,0.00,0.00
"USW00024207","1949-03-25",51.98,39.02,25.00,0.00,0.00
"USW00024207","1949-03-26",50.00,39.02,0.00,0.00,0.00
"USW00024207","1949-03-27",50.00,33.98,0.00,0.00,0.00
"USW00024207","1949-03-28",51.98,28.04,0.00,0.00,0.00
"USW00024207","1949-03-29",46.94,37.94,51.00,0.00,0.00
"USW00024207","1949-03-30",50.00,33.98,5.00,0.00,0.00
"USW00024207","1949-03-31",57.92,28.04,0.00,0.00,0.00
"USW00024207","1949-04-01",50.00,32.00,89.00,0.00,0.00
"USW00024207","1949-04-02",55.04,35.96,5.00,0.00,0.00
"USW00024207","1949-04-03",64.04,30.92,0.00,0.00,0.00
"USW00024207","1949-04-04",75.02,35.96,0.00,0.00,0.00
"USW00024207","1949-04-05",60.08,39.92,0.00,0.00,0.00
"USW00024207","1949-04-06",68.00,32.00,0.00,0.00,0.00
"USW00024207","1949-04-07",57.02,35.96,0.00,0.00,0.00
"USW00024207","1949-04-08",60.98,42.08,0.00,0.00,0.00
"USW00024207","1949-04-09",77.00,37.94,0.00,0.00,0.00
"USW00024207","1949-04-10",68.00,41.00,0.00,0.00,0.00
"USW00024207","1949-04-11",57.92,41.00,0.00,0.00,0.00
"USW00024207","1949-04-12",57.92,41.00,0.00,0.00,0.00
"USW00024207","1949-04-13",57.02,35.96,0.00,0.00,0.00
"USW00024207","1949-04-14",73.94,30.02,0.00,0.00,0.00
"USW00024207","1949-04-15",71.96,35.96,0.00,0.00,0.00
"USW00024207","1949-04-16",59.00,41.00,0.00,0.00,0.00
"USW00024207","1949-04-17",53.06,39.02,0.00,0.00,0.00
"USW00024207","1949-04-18",53.06,44.96,0.00,0.00,0.00
"USW00024207","1949-04-19",51.98,44.96,15.00,0.00,0.00
"USW00024207","1949-04-20",57.02,44.06,,0.00,0.00
"USW00024207","1949-04-21",51.98,44.96,36.00,0.00,0.00
"USW00024207","1949-04-22",53.96,39.92,46.00,0.00,0.00
"USW00024207","1949-04-23",57.02,44.06,25.00,0.00,0.00
"USW00024207","1949-04-24",59.00,37.94,0.00,0.00,0.00
"USW00024207","1949-04-25",60.98,42.08,3.00,0.00,0.00
"USW00024207","1949-04-26",69.98,35.06,0.00,0.00,0.00
"USW00024207","1949-04-27",64.04,44.06,8.00,0.00,0.00
"USW00024207","1949-04-28",57.02,46.94,38.00,0.00,0.00
"USW00024207","1949-04-29",51.98,39.02,0.00,0.00,0.00
"USW00024207","1949-04-30",55.04,39.02,0.00,0.00,0.00
"USW00024207","1949-05-01",53.06,42.98,119.00,0.00,0.00
"USW00024207","1949-05-02",53.96,39.92,64.00,0.00,0.00
"USW00024207","1949-05-03",53.06,37.94,0.00,0.00,0.00
"USW00024207","1949-05-04",60.08,33.08,0.00,0.00,0.00
"USW00024207","1949-05-05",73.04,32.00,0.00,0.00,0.00
"USW00024207","1949-05-06",71.96,42.08,0.00,0.00,0.00
"USW00024207","1949-05-07",80.06,44.06,0.00,0.00,0.00
"USW00024207","1949-05-08",78.98,44.96,0.00,0.00,0.00
"USW00024207","1949-05-09",75.92,44.06,0.00,0.00,0.00
"USW00024207","1949-05-10",77.00,46.94,0.00,0.00,0.00
"USW00024207","1949-05-11",80.06,44.06,0.00,0.00,0.00
"USW00024207","1949-05-12",80.06,48.02,0.00,0.00,0.00
"USW00024207","1949-05-13",80.06,48.02,0.00,0.00,0.00
"USW00024207","1949-05-14",78.08,44.96,0.00,0.00,0.00
"USW00024207","1949-05-15",68.00,48.02,0.00,0.00,0.00
"USW00024207","1949-05-16",60.08,48.02,15.00,0.00,0.00
"USW00024207","1949-05-17",64.94,42.08,3.00,0.00,0.00
"USW00024207","1949-05-18",78.08,48.02,0.00,0.00,0.00
"USW00024207","1949-05-19",60.08,48.02,0.00,0.00,0.00
"USW00024207","1949-05-20",66.02,48.92,0.00,0.00,0.00
"USW00024207","1949-05-21",69.98,48.02,38.00,0.00,0.00
"USW00024207","1949-05-22",71.96,51.08,8.00,0.00,0.00
"USW00024207","1949-05-23",73.94,44.96,0.00,0.00,0.00
"USW00024207","1949-05-24",66.02,51.08,0.00,0.00,0.00
"USW00024207","1949-05-25",71.96,41.00,0.00,0.00,0.00
"USW00024207","1949-05-26",71.06,42.98,0.00,0.00,0.00
"USW00024207","1949-05-27",60.98,51.98,13.00,0.00,0.00
"USW00024207","1949-05-28",64.94,48.02,0.00,0.00,0.00
"USW00024207","1949-05-29",66.02,39.92,0.00,0.00,0.00
"USW00024207","1949-05-30",62.06,50.00,0.00,0.00,0.00
"USW00024207","1949-05-31",60.08,48.92,0.00,0.00,0.00
"USW00024207","1949-06-01",62.06,46.04,0.00,0.00,0.00
"USW00024207","1949-06-02",66.92,44.96,0.00,0.00,0.00
"USW00024207","1949-06-03",75.02,41.00,0.00,0.00,0.00
"USW00024207","1949-06-04",80.96,46.94,0.00,0.00,0.00
"USW00024207","1949-06-05",84.02,48.92,0.00,0.00,0.00
"USW00024207","1949-06-06",82.94,50.00,0.00,0.00,0.00
"USW00024207","1949-06-07",71.96,44.96,0.00,0.00,0.00
"USW00024207","1949-06-08",78.08,46.04,0.00,0.00,0.00
"USW00024207","1949-06-09",73.94,51.08,5.00,0.00,0.00
"USW00024207","1949-06-10",68.00,51.98,0.00,0.00,0.00
"USW00024207","1949-06-11",73.94,39.92,0.00,0.00,0.00
"USW00024207","1949-06-12",73.94,42.08,0.00,0.00,0.00
"USW00024207","1949-06-13",75.92,42.08,0.00,0.00,0.00
"USW00024207","1949-06-14",80.06,44.06,0.00,0.00,0.00
"USW00024207","1949-06-15",64.04,46.04,0.00,0.00,0.00
"USW00024207","1949-06-16",69.08,44.96,0.00,0.00,0.00
"USW00024207","1949-06-17",73.94,42.08,0.00,0.00,0.00
"USW00024207","1949-06-18",78.98,41.00,0.00,0.00,0.00
"USW00024207","1949-06-19",64.04,44.06,0.00,0.00,0.00
"USW00024207","1949-06-20",73.04,53.06,0.00,0.00,0.00
"USW00024207","1949-06-21",73.04,44.96,0.00,0.00,0.00
"USW00024207","1949-06-22",62.06,51.98,0.00,0.00,0.00
"USW00024207","1949-06-23",69.98,51.98,0.00,0.00,0.00
"USW00024207","1949-06-24",62.96,48.02,0.00,0.00,0.00
"USW00024207","1949-06-25",60.08,46.04,0.00,0.00,0.00
"USW00024207","1949-06-26",60.98,48.92,51.00,0.00,0.00
"USW00024207","1949-06-27",60.98,50.00,0.00,0.00,0.00
"USW00024207","1949-06-28",59.00,44.96,107.00,0.00,0.00
"USW00024207","1949-06-29",60.98,44.06,0.00,0.00,0.00
"USW00024207","1949-06-30",73.94,42.08,0.00,0.00,0.00
"USW00024207","1949-07-01",71.96,48.02,0.00,0.00,0.00
"USW00024207","1949-07-02",73.94,44.96,0.00,0.00,0.00
"USW00024207","1949-07-03",75.92,42.08,0.00,0.00,0.00
"USW00024207","1949-07-04",71.96,44.96,0.00,0.00,0.00
"USW00024207","1949-07-05",68.00,50.00,0.00,0.00,0.00
"USW00024207","1949-07-06",66.92,48.02,0.00,0.00,0.00
"USW00024207","1949-07-07",75.92,44.96,0.00,0.00,0.00
"USW00024207","1949-07-08",82.04,44.06,0.00,0.00,0.00
"USW00024207","1949-07-09",84.02,48.02,0.00,0.00,0.00
"USW00024207","1949-07-10",82.04,51.98,0.00,0.00,0.00
"USW00024207","1949-07-11",77.00,53.06,0.00,0.00,0.00
"USW00024207","1949-07-12",84.02,50.00,0.00,0.00,0.00
"USW00024207","1949-07-13",87.08,55.04,0.00,0.00,0.00
"USW00024207","1949-07-14",86.00,53.96,0.00,0.00,0.00
"USW00024207","1949-07-15",75.92,57.02,13.00,0.00,0.00
"USW00024207","1949-07-16",71.96,55.04,0.00,0.00,0.00
"USW00024207","1949-07-17",78.08,46.04,0.00,0.00,0.00
"USW00024207","1949-07-18",68.00,53.06,10.00,0.00,0.00
"USW00024207","1949-07-19",68.00,53.06,0.00,0.00,0.00
"USW00024207","1949-07-20",68.00,50.00,0.00,0.00,0.00
"USW00024207","1949-07-21",69.08,46.94,0.00,0.00,0.00
"USW00024207","1949-07-22",66.92,55.94,0.00,0.00,0.00
"USW00024207","1949-07-23",66.02,53.96,56.00,0.00,0.00
"USW00024207","1949-07-24",69.08,53.96,10.00,0.00,0.00
"USW00024207","1949-07-25",62.96,55.94,0.00,0.00,0.00
"USW00024207","1949-07-26",62.96,53.06,0.00,0.00,0.00
"USW00024207","1949-07-27",68.00,53.96,0.00,0.00,0.00
"USW00024207","1949-07-28",75.92,44.06,0.00,0.00,0.00
"USW00024207","1949-07-29",82.94,48.02,0.00,0.00,0.00
"USW00024207","1949-07-30",84.92,55.04,0.00,0.00,0.00
"USW00024207","1949-07-31",87.98,51.98,0.00,0.00,0.00
"USW00024207","1949-08-01",91.94,66.02,0.00,0.00,0.00
"USW00024207","1949-08-02",75.02,57.02,0.00,0.00,0.00
"USW00024207","1949-08-03",71.96,57.02,0.00,0.00,0.00
"USW00024207","1949-08-04",71.96,57.02,23.00,0.00,0.00
"USW00024207","1949-08-05",73.04,48.92,0.00,0.00,0.00
"USW00024207","1949-08-06",64.94,53.96,13.00,0.00,0.00
"USW00024207","1949-08-07",64.94,53.96,10.00,0.00,0.00
"USW00024207","1949-08-08",73.94,53.06,0.00,0.00,0.00
"USW00024207","1949-08-09",69.08,48.02,0.00,0.00,0.00
"USW00024207","1949-08-10",73.94,53.06,0.00,0.00,0.00
"USW00024207","1949-08-11",68.00,57.92,20.00,0.00,0.00
"USW00024207","1949-08-12",64.94,51.98,3.00,0.00,0.00
"USW00024207","1949-08-13",73.04,50.00,0.00,0.00,0.00
"USW00024207","1949-08-14",73.94,44.96,0.00,0.00,0.00
"USW00024207","1949-08-15",73.94,48.02,0.00,0.00,0.00
"USW00024207","1949-08-16",69.08,57.92,0.00,0.00,0.00
"USW00024207","1949-08-17",73.94,53.96,0.00,0.00,0.00
"USW00024207","1949-08-18",78.08,46.94,0.00,0.00,0.00
"USW00024207","1949-08-19",80.06,44.96,0.00,0.00,0.00
"USW00024207","1949-08-20",69.98,51.08,0.00,0.00,0.00
"USW00024207","1949-08-21",71.06,55.04,0.00,0.00,0.00
"USW00024207","1949-08-22",71.96,48.92,0.00,0.00,0.00
"USW00024207","1949-08-23",73.04,48.92,0.00,0.00,0.00
"USW00024207","1949-08-24",69.98,46.04,18.00,0.00,0.00
"USW00024207","1949-08-25",71.06,50.00,0.00,0.00,0.00
"USW00024207","1949-08-26",78.08,42.08,0.00,0.00,0.00
"USW00024207","1949-08-27",80.96,46.94,0.00,0.00,0.00
"USW00024207","1949-08-28",84.02,50.00,0.00,0.00,0.00
"USW00024207","1949-08-29",84.02,51.98,0.00,0.00,0.00
"USW00024207","1949-08-30",66.92,60.08,0.00,0.00,0.00
"USW00024207","1949-08-31",75.02,51.98,0.00,0.00,0.00
"USW00024207","1949-09-01",80.06,46.94,0.00,0.00,0.00
"USW00024207","1949-09-02",78.08,51.08,0.00,0.00,0.00
"USW00024207","1949-09-03",82.94,51.08,0.00,0.00,0.00
"USW00024207","1949-09-04",75.02,57.02,0.00,0.00,0.00
"USW00024207","1949-09-05",82.04,55.94,0.00,0.00,0.00
"USW00024207","1949-09-06",87.08,48.92,0.00,0.00,0.00
"USW00024207","1949-09-07",84.02,51.98,0.00,0.00,0.00
"USW00024207","1949-09-08",77.00,53.06,0.00,0.00,0.00
"USW00024207","1949-09-09",68.00,57.92,18.00,0.00,0.00
"USW00024207","1949-09-10",64.94,51.98,0.00,0.00,0.00
"USW00024207","1949-09-11",69.98,41.00,0.00,0.00,0.00
"USW00024207","1949-09-12",77.00,35.06,0.00,0.00,0.00
"USW00024207","1949-09-13",78.08,39.92,0.00,0.00,0.00
"USW00024207","1949-09-14",64.94,48.02,13.00,0.00,0.00
"USW00024207","1949-09-15",62.06,51.98,102.00,0.00,0.00
"USW00024207","1949-09-16",59.00,50.00,36.00,0.00,0.00
"USW00024207","1949-09-17",62.96,44.96,0.00,0.00,0.00
"USW00024207","1949-09-18",64.04,53.06,8.00,0.00,0.00
"USW00024207","1949-09-19",64.04,44.06,0.00,0.00,0.00
"USW00024207","1949-09-20",66.92,37.04,0.00,0.00,0.00
"USW00024207","1949-09-21",69.98,39.92,0.00,0.00,0.00
"USW00024207","1949-09-22",73.94,39.02,0.00,0.00,0.00
"USW00024207","1949-09-23",73.94,42.08,0.00,0.00,0.00
"USW00024207","1949-09-24",59.00,51.98,0.00,0.00,0.00
"USW00024207","1949-09-25",75.02,39.92,0.00,0.00,0.00
"USW00024207","1949-09-26",75.02,39.92,0.00,0.00,0.00
"USW00024207","1949-09-27",80.06,42.08,0.00,0.00,0.00
"USW00024207","1949-09-28",64.94,50.00,0.00,0.00,0.00
"USW00024207","1949-09-29",64.94,57.02,10.00,0.00,0.00
"USW00024207","1949-09-30",62.96,53.06,0.00,0.00,0.00
"USW00024207","1949-10-01",62.96,50.00,0.00,0.00,0.00
"USW00024207","1949-10-02",62.96,37.94,0.00,0.00,0.00
"USW00024207","1949-10-03",59.00,39.02,25.00,0.00,0.00
"USW00024207","1949-10-04",53.96,48.02,71.00,0.00,0.00
"USW00024207","1949-10-05",57.02,44.96,10.00,0.00,0.00
"USW00024207","1949-10-06",50.00,44.06,10.00,0.00,0.00
"USW00024207","1949-10-07",57.02,44.06,25.00,0.00,0.00
"USW00024207","1949-10-08",53.96,33.98,0.00,0.00,0.00
"USW00024207","1949-10-09",59.00,46.94,13.00,0.00,0.00
"USW00024207","1949-10-10",55.04,44.06,8.00,0.00,0.00
"USW00024207","1949-10-11",57.02,48.92,81.00,0.00,0.00
"USW00024207","1949-10-12",62.96,39.02,0.00,0.00,0.00
"USW00024207","1949-10-13",57.92,30.92,0.00,0.00,0.00
"USW00024207","1949-10-14",66.02,33.08,0.00,0.00,0.00
"USW00024207","1949-10-15",59.00,41.00,0.00,0.00,0.00
"USW00024207","1949-10-16",55.94,37.04,0.00,0.00,0.00
"USW00024207","1949-10-17",50.00,30.92,0.00,0.00,0.00
"USW00024207","1949-10-18",48.92,28.94,0.00,0.00,0.00
"USW00024207","1949-10-19",51.98,24.98,0.00,0.00,0.00
"USW00024207","1949-10-20",53.06,24.08,0.00,0.00,0.00
"USW00024207","1949-10-21",55.04,28.04,0.00,0.00,0.00
"USW00024207","1949-10-22",55.94,32.00,0.00,0.00,0.00
"USW00024207","1949-10-23",46.94,35.96,0.00,0.00,0.00
"USW00024207","1949-10-24",53.96,39.02,0.00,0.00,0.00
"USW00024207","1949-10-25",48.02,39.02,0.00,0.00,0.00
"USW00024207","1949-10-26",53.96,44.96,30.00,0.00,0.00
"USW00024207","1949-10-27",59.00,46.94,180.00,0.00,0.00
"USW00024207","1949-10-28",59.00,46.04,269.00,0.00,0.00
"USW00024207","1949-10-29",59.00,39.02,0.00,0.00,0.00
"USW00024207","1949-10-30",62.96,32.00,0.00,0.00,0.00
"USW00024207","1949-10-31",73.04,33.98,0.00,0.00,0.00
"USW00024207","1949-11-01",62.96,35.06,0.00,0.00,0.00
"USW00024207","1949-11-02",69.08,35.96,0.00,0.00,0.00
"USW00024207","1949-11-03",69.98,35.96,0.00,0.00,0.00
"USW00024207","1949-11-04",71.96,37.04,0.00,0.00,0.00
"USW00024207","1949-11-05",66.02,35.06,0.00,0.00,0.00
"USW00024207","1949-11-06",51.98,35.96,0.00,0.00,0.00
"USW00024207","1949-11-07",53.96,37.04,0.00,0.00,0.00
"USW00024207","1949-11-08",53.96,44.96,3.00,0.00,0.00
"USW00024207","1949-11-09",50.00,37.94,30.00,0.00,0.00
"USW00024207","1949-11-10",51.98,42.98,13.00,0.00,0.00
"USW00024207","1949-11-11",53.06,46.04,43.00,0.00,0.00
"USW00024207","1949-11-12",48.92,44.96,460.00,0.00,0.00
"USW00024207","1949-11-13",55.94,48.02,53.00,0.00,0.00
"USW00024207","1949-11-14",57.02,48.92,46.00,0.00,0.00
"USW00024207","1949-11-15",51.98,44.06,0.00,0.00,0.00
"USW00024207","1949-11-16",64.94,42.08,0.00,0.00,0.00
"USW00024207","1949-11-17",53.96,37.04,0.00,0.00,0.00
"USW00024207","1949-11-18",53.96,39.92,3.00,0.00,0.00
"USW00024207","1949-11-19",50.00,46.04,0.00,0.00,0.00
"USW00024207","1949-11-20",46.04,37.04,0.00,0.00,0.00
"USW00024207","1949-11-21",53.96,33.98,8.00,0.00,0.00
"USW00024207","1949-11-22",53.06,37.94,183.00,0.00,0.00
"USW00024207","1949-11-23",53.96,46.04,76.00,0.00,0.00
"USW00024207","1949-11-24",60.98,48.02,51.00,0.00,0.00
"USW00024207","1949-11-25",60.08,48.92,109.00,0.00,0.00
"USW00024207","1949-11-26",60.08,51.08,208.00,0.00,0.00
"USW00024207","1949-11-27",57.92,44.06,221.00,0.00,0.00
"USW00024207","1949-11-28",51.08,42.98,5.00,0.00,0.00
"USW00024207","1949-11-29",48.92,42.98,48.00,0.00,0.00
"USW00024207","1949-11-30",51.98,44.06,8.00,0.00,0.00
"USW00024207","1949-12-01",57.02,48.02,76.00,0.00,0.00
"USW00024207","1949-12-02",48.92,35.06,10.00,0.00,0.00
"USW00024207","1949-12-03",39.92,30.02,0.00,0.00,0.00
"USW00024207","1949-12-04",55.94,33.08,0.00,0.00,0.00
"USW00024207","1949-12-05",46.94,35.96,46.00,0.00,0.00
"USW00024207","1949-12-06",46.04,30.02,0.00,0.00,0.00
"USW00024207","1949-12-07",46.94,24.98,0.00,0.00,0.00
"USW00024207","1949-12-08",44.06,24.98,0.00,0.00,0.00
"USW00024207","1949-12-09",44.06,32.00,0.00,0.00,0.00
"USW00024207","1949-12-10",39.02,24.98,0.00,0.00,0.00
"USW00024207","1949-12-11",39.02,24.08,13.00,13.00,0.00
"USW00024207","1949-12-12",37.04,32.00,130.00,10.00,0.00
"USW00024207","1949-12-13",44.96,35.96,18.00,0.00,0.00
"USW00024207","1949-12-14",42.98,35.06,0.00,0.00,0.00
"USW00024207","1949-12-15",42.98,35.96,0.00,0.00,0.00
"USW00024207","1949-12-16",41.00,33.98,64.00,0.00,0.00
"USW00024207","1949-12-17",42.08,33.08,58.00,0.00,0.00
"USW00024207","1949-12-18",33.98,26.96,114.00,99.00,76.00
"USW00024207","1949-12-19",30.92,17.06,3.00,3.00,76.00
"USW00024207","1949-12-20",37.94,21.02,15.00,13.00,25.00
"USW00024207","1949-12-21",44.06,37.94,0.00,0.00,0.00
"USW00024207","1949-12-22",48.02,42.98,5.00,0.00,0.00
"USW00024207","1949-12-23",48.02,37.04,231.00,0.00,0.00
"USW00024207","1949-12-24",44.06,30.02,0.00,0.00,0.00
"USW00024207","1949-12-25",48.02,39.02,51.00,0.00,0.00
"USW00024207","1949-12-26",42.08,39.92,104.00,0.00,0.00
"USW00024207","1949-12-27",48.02,42.08,394.00,0.00,0.00
"USW00024207","1949-12-28",53.06,48.02,38.00,0.00,0.00
"USW00024207","1949-12-29",55.04,33.08,53.00,0.00,0.00
"USW00024207","1949-12-30",37.04,30.92,112.00,5.00,0.00
"USW00024207","1949-12-31",37.04,30.92,3.00,0.00,0.00
"USW00024207","1950-01-01",33.08,24.08,48.00,18.00,25.00
"USW00024207","1950-01-02",24.08,14.00,0.00,0.00,25.00
"USW00024207","1950-01-03",28.94,10.94,76.00,10.00,25.00
"USW00024207","1950-01-04",30.92,15.98,0.00,0.00,76.00
"USW00024207","1950-01-05",39.02,24.08,0.00,0.00,25.00
"USW00024207","1950-01-06",39.02,35.06,135.00,0.00,0.00
"USW00024207","1950-01-07",35.96,32.00,76.00,0.00,0.00
"USW00024207","1950-01-08",37.04,32.00,0.00,0.00,0.00
"USW00024207","1950-01-09",39.02,30.02,41.00,0.00,0.00
"USW00024207","1950-01-10",39.92,32.00,150.00,5.00,0.00
"USW00024207","1950-01-11",35.06,28.94,0.00,0.00,0.00
"USW00024207","1950-01-12",33.08,19.04,25.00,25.00,0.00
"USW00024207","1950-01-13",19.94,10.94,58.00,23.00,25.00
"USW00024207","1950-01-14",19.04,8.06,259.00,102.00,203.00
"USW00024207","1950-01-15",24.08,15.08,213.00,213.00,406.00
"USW00024207","1950-01-16",26.06,15.08,25.00,25.00,432.00
"USW00024207","1950-01-17",24.98,10.04,0.00,0.00,457.00
"USW00024207","1950-01-18",24.98,-5.08,64.00,58.00,381.00
"USW00024207","1950-01-19",42.08,26.96,132.00,0.00,127.00
"USW00024207","1950-01-20",50.00,37.94,325.00,0.00,76.00
"USW00024207","1950-01-21",51.08,44.96,30.00,0.00,25.00
"USW00024207","1950-01-22",44.96,37.04,155.00,0.00,0.00
"USW00024207","1950-01-23",37.04,24.98,58.00,25.00,25.00
"USW00024207","1950-01-24",24.98,12.02,46.00,46.00,51.00
"USW00024207","1950-01-25",33.08,3.02,23.00,23.00,25.00
"USW00024207","1950-01-26",37.94,26.96,180.00,152.00,127.00
"USW00024207","1950-01-27",28.94,19.94,0.00,0.00,76.00
"USW00024207","1950-01-28",26.96,6.08,25.00,25.00,76.00
"USW00024207","1950-01-29",24.98,3.02,0.00,0.00,76.00
"USW00024207","1950-01-30",26.06,6.08,0.00,0.00,76.00
"USW00024207","1950-01-31",21.92,-0.94,0.00,0.00,76.00
"USW00024207","1950-02-01",28.04,-0.94,0.00,0.00,76.00
"USW00024207","1950-02-02",30.02,1.04,0.00,0.00,76.00
"USW00024207","1950-02-03",33.08,3.02,8.00,8.00,51.00
"USW00024207","1950-02-04",46.94,28.94,30.00,0.00,0.00
"USW00024207","1950-02-05",44.96,32.00,38.00,0.00,0.00
"USW00024207","1950-02-06",44.06,35.06,18.00,0.00,0.00
"USW00024207","1950-02-07",46.04,35.06,10.00,0.00,0.00
"USW00024207","1950-02-08",46.94,35.96,43.00,0.00,0.00
"USW00024207","1950-02-09",48.02,37.94,5.00,0.00,0.00
"USW00024207","1950-02-10",42.98,35.06,18.00,0.00,0.00
"USW00024207","1950-02-11",46.04,37.94,0.00,0.00,0.00
"USW00024207","1950-02-12",44.96,37.94,81.00,0.00,0.00
"USW00024207","1950-02-13",53.96,42.98,10.00,0.00,0.00
"USW00024207","1950-02-14",51.98,39.92,5.00,0.00,0.00
"USW00024207","1950-02-15",55.94,46.04,23.00,0.00,0.00
"USW00024207","1950-02-16",51.08,37.04,8.00,0.00,0.00
"USW00024207","1950-02-17",55.04,37.94,0.00,0.00,0.00
"USW00024207","1950-02-18",55.04,37.94,0.00,0.00,0.00
"USW00024207","1950-02-19",46.94,37.04,0.00,0.00,0.00
"USW00024207","1950-02-20",46.04,37.94,8.00,0.00,0.00
"USW00024207","1950-02-21",50.00,39.02,0.00,0.00,0.00
"USW00024207","1950-02-22",50.00,42.08,3.00,0.00,0.00
"USW00024207","1950-02-23",50.00,39.02,43.00,0.00,0.00
"USW00024207","1950-02-24",50.00,42.08,81.00,0.00,0.00
"USW00024207","1950-02-25",60.08,39.92,137.00,0.00,0.00
"USW00024207","1950-02-26",57.02,35.96,97.00,0.00,0.00
"USW00024207","1950-02-27",50.00,30.02,0.00,0.00,0.00
"USW00024207","1950-02-28",51.98,26.06,0.00,0.00,0.00
"USW00024207","1950-03-01",57.92,30.02,0.00,0.00,0.00
"USW00024207","1950-03-02",51.98,39.92,56.00,0.00,0.00